Capitol Logistics 2576


KMEM
Memphis International Airport
Memphis, Tennessee, US
KIAD
Washington Dulles International Airport
Dulles, Virginia, US

Activity Log

Date Flight Route Aircraft Duration
12/07/2019 CPX2576 GOETZ6 DIYAB BNA J42 BKW GIBBZ3 B763 1h 48m

Route Details

Aircraft Information
Primary: Boeing 767-300BDSF
Backup: Boeing 757-200SF
Date Restrictions
Between:Nov 16, 2019
Dec 31, 2019
Route Data
Distance: 644nm
Sched. Duration: 1h 33m
Avg. Duration: 1h 48m (+15m)
Times Flown: 1
Recm'd Route: GOETZ6 DIYAB BNA J42 BKW GIBBZ3
Planned Altitude: 37,000ft
Origin Wx: KMEM 290354Z 20007KT 10SM FEW090 SCT120 18/17 A2996 RMK AO2 SLP141 T01830172 $
Dest. Wx: KIAD 290352Z 16007KT 10SM BKN010 OVC016 24/22 A3003 RMK AO2 SLP165 T02390217
Notes: OPERATED FOR FEDEX

Financial History
Total Freight: 53,744lbs
Average Load: 53,744lbs/flt
Fuel Used: 17,105lbs
Avg. Fuel Used: 17,105lbs/flt
Fuel Expense: $17,960
Avg. Fuel Expense: $17,960
Avg. Fuel Cost: $1.05/lbs
Total Gross Income: $81,153
Pilot Pay: $229
Total Expenses: $8,817
Total Revenue: $53,874
Average Revenue: $81,153.44